This is the latest recevied weather packets stored in our database for station/object KJ4AJP. If no packets are shown the sender has not sent any weather packets the latest 10 day(s).
| Time | Temp. | Humidity | Pressure | Rain* | Wind** | Luminosity | Snow |
|---|---|---|---|---|---|---|---|
| 1777948792 | 19.44° C | 56% | 1008.8 hPa | 0 mm | - | 0 W/m² | - |
| 1777948489 | 19.44° C | 56% | 1009 hPa | 0 mm | - | 0 W/m² | - |
| 1777948186 | 19.44° C | 57% | 1009 hPa | 0 mm | - | 0 W/m² | - |
| 1777947883 | 18.89° C | 57% | 1009 hPa | 0 mm | - | 0 W/m² | - |
| 1777947580 | 18.89° C | 57% | 1008.9 hPa | 0 mm | - | 0 W/m² | - |
| 1777947277 | 18.89° C | 56% | 1008.9 hPa | 0 mm | - | 0 W/m² | - |
| 1777946972 | 19.44° C | 55% | 1009 hPa | 0 mm | - | 0 W/m² | - |
| 1777946668 | 20° C | 54% | 1008.8 hPa | 0 mm | - | 0 W/m² | - |
| 1777946365 | 20° C | 53% | 1008.8 hPa | 0 mm | - | 0 W/m² | - |
| 1777946062 | 20° C | 52% | 1008.6 hPa | 0 mm | - | 0 W/m² | - |
| 1777945760 | 20.56° C | 51% | 1008.6 hPa | 0 mm | - | 0 W/m² | - |
| 1777945456 | 20.56° C | 50% | 1008.6 hPa | 0 mm | - | 0 W/m² | - |
| 1777945153 | 20.56° C | 49% | 1008.5 hPa | 0 mm | - | 0 W/m² | - |
| 1777944850 | 20.56° C | 49% | 1008.4 hPa | 0 mm | - | 0 W/m² | - |
| 1777944548 | 20.56° C | 50% | 1008.5 hPa | 0 mm | - | 0 W/m² | - |
| 1777944246 | 20.56° C | 49% | 1008.5 hPa | 0 mm | - | 0 W/m² | - |
| 1777943942 | 20.56° C | 49% | 1008.4 hPa | 0 mm | - | 0 W/m² | - |
| 1777943639 | 21.11° C | 48% | 1008.3 hPa | 0 mm | - | 0 W/m² | - |
| 1777943335 | 21.11° C | 47% | 1008.5 hPa | 0 mm | - | 0 W/m² | - |
| 1777943031 | 21.67° C | 46% | 1008.4 hPa | 0 mm | - | 0 W/m² | - |
| 1777942727 | 22.22° C | 45% | 1008.2 hPa | 0 mm | - | 0 W/m² | - |
| 1777942424 | 22.78° C | 43% | 1008.3 hPa | 0 mm | - | 1 W/m² | - |
| 1777942122 | 22.78° C | 42% | 1008.3 hPa | 0 mm | - | 2 W/m² | - |
| 1777941818 | 23.33° C | 41% | 1008.5 hPa | 0 mm | - | 3 W/m² | - |
| 1777941515 | 23.89° C | 40% | 1008.4 hPa | 0 mm | - | 5 W/m² | - |
* Rain latest hour (hover to see other rain measurements)
** Current wind speed in m/s (hover to see current wind gust speed)